Погода в Усти-над-Лабем

Чехия     50°40′23″N   14°02′20″E
темп.,
°C
ветер,
м/с
пор.,
м/с
влажн.,
%
обл.,
%
осадки,
мм/ч
давл.,
гПа
погр.,
м
20 мая, пт
пт2023:00+15ю2280100 0.0 102029
02:00+15ююз2387100 0.1 102052
05:00+14зсз11885 0.0 102123
08:00+18сз257951 0.0 1022493
11:00+22зюз2463100 0.0 10211150
14:00+23ююз4563100 0.2 10191080
17:00+23з0276100 2.0 1016205
20:00+21ю118460 2.5 101317
21 мая, сб
сб2123:00+18юз2292100 3.8 101332
02:00+16зсз7148925 5.3 1014966
05:00+11зсз8147996 0.0 10181100
08:00+11з6137210 0.0 1020962
11:00+16зсз71156100 0.0 10201668
14:00+18зсз71248100 0.1 10192228
17:00+17сз7125088 0.0 10181825
20:00+13сз5116910 0.0 1019940
22 мая, вс
вс2223:00+10зсз2784100 0.0 1020192
02:00+9з248880 0.0 1019103
05:00+8з229468 0.0 101930
08:00+12сз367635 0.0 1018814
11:00+15сз46515 0.0 10171329
14:00+17ссз5542100 0.0 10161617
17:00+17ссз454499 0.0 10151366
20:00+13ссз2264100 0.0 101520
23 мая, пн
пн2323:00+9сз116762 0.0 101511
02:00+8вюв01725 0.0 101510
05:00+7ю2180100 0.0 101413
08:00+12юв2365100 0.0 1012278
11:00+16юв4655100 0.0 1010753
14:00+19ююв575094 0.0 10081174
17:00+17ю4864100 0.0 1005542
20:00+16ююв3972100 0.0 1005379
24 мая, вт
вт2423:00+13ю3694100 0.1 1005165
02:00+12ююз239837 0.1 100660
05:00+12юз2296100 0.0 100722
08:00+16юз238581 0.0 1008392
11:00+19юз3570100 0.7 10081158
14:00+17зюз3676100 1.7 1009345
17:00+16зюз2571100 0.3 1010192
20:00+15юз2273100 0.3 101138